User: anonymous   Login
Location: Kuppenheim
(48.8299°N, 8.2568°E)
Time: 16:59:14
(UTC+00:00)
Language:

Helios 1B rocket - Orbit

View from above orbital plane
View from above orbital plane
View from above satellite
View from above satellite

Ground track
Ground track

The orbit data is extracted from the following two-line orbital elements,

1 25979U 99064C   21268.57063674  .00000819  00000-0  77707-4 0  9997
2 25979  98.1706 211.9722 0005951 185.3898 174.7259 14.96479973183579
Epoch (UTC): 25 September 2021 13:41:43
Eccentricity: 0.0005951
inclination: 98.1706°
perigee height: 573 km
apogee height: 582 km
right ascension of ascending node: 211.9722°
argument of perigee: 185.3898°
revolutions per day: 14.96479973
mean anomaly at epoch: 174.7259°
orbit number at epoch: 18357

The dashed part of the orbit path shows where the satellite is in the earth's shadow,  

DLR